Vorticity
9 8 7 8 7 7 9 6 6 2 6 11 10 10 6 20 14 4 2 15 7 4 4 15 -0 12 17 9 12 -2 25 24 11 23 6 17 7 7 5 -4 4 8 14 -5 31 4 39 14 16 9 -1 -0 0 6
8 7 9 5 6 8 -6 1 8 -5 6 7 6 7 8 22 15 4 1 11 13 5 -8 2 21 20 11 11 11 11 10 -14 -3 -5 -6 16 -13 -4 5 6 17 21 7 -6 -12 -14 -18 -11 -2 5 6 8 8 7
-5 4 12 9 5 -1 4 7 9 6 2 4 6 18 8 28 19 4 6 2 13 8 15 34 -22 31 17 -5 12 23 18 7 15 5 11 11 4 21 1 3 0 12 18 16 23 20 17 9 10 6 9 8 6 8
4 6 7 -5 -0 16 -7 2 4 0 -8 -4 8 12 21 27 13 8 8 5 10 6 4 38 9 1 4 13 25 19 12 11 13 10 18 8 0 7 1 -15 -1 -8 3 1 29 16 11 11 8 12 13 10 9 10
17 24 13 7 13 11 3 -1 13 3 8 11 16 9 23 29 6 10 8 7 7 11 -21 18 13 1 33 20 15 16 22 9 7 7 6 9 4 9 10 26 23 26 15 23 -2 -2 6 -1 5 6 9 13 13 11
17 11 7 6 9 16 18 16 17 22 15 14 13 26 33 7 4 7 11 5 28 15 17 12 7 -5 10 18 20 16 6 7 9 5 0 3 5 28 20 4 18 14 24 10 1 21 15 10 13 12 12 15 14 12
21 24 28 31 33 20 16 14 16 19 21 23 26 32 26 8 4 17 4 -2 13 15 20 48 38 19 27 19 13 9 8 5 8 8 3 27 34 27 13 -0 8 13 17 18 16 12 13 13 12 12 12 11 10 9
13 14 13 14 13 16 20 26 27 18 13 23 34 26 3 6 8 10 3 10 13 22 34 29 1 30 17 9 14 8 7 1 2 21 21 15 21 14 18 27 24 18 14 13 12 11 10 12 12 10 10 11 12 12
13 14 13 10 9 10 10 14 16 18 12 44 6 14 7 7 13 6 7 11 17 25 -4 -2 -2 7 40 22 16 -5 10 28 34 17 18 22 18 10 2 7 7 8 8 10 13 12 10 9 12 13 12 11 12 11
10 8 7 6 7 12 11 10 16 24 24 8 28 12 9 3 14 18 20 32 27 19 15 8 23 0 7 -3 3 30 37 20 9 18 26 28 20 18 11 10 9 13 12 10 10 10 11 12 11 12 12 12 12 11
3 5 8 10 12 10 10 12 21 15 15 20 18 10 9 3 17 16 35 12 18 20 23 21 31 17 13 -2 16 29 12 12 13 16 12 12 13 22 17 13 10 9 10 10 9 7 6 8 9 11 11 12 11 10
10 10 13 14 7 3 7 21 15 16 22 20 25 19 11 25 42 29 22 18 7 9 14 20 5 -5 8 21 32 19 17 16 5 13 11 13 13 13 13 7 6 9 7 2 -4 -4 1 5 8 9 7 9 11 12
9 11 13 9 11 6 8 22 4 22 22 15 17 32 28 15 13 0 13 7 2 9 18 1 3 11 23 20 20 14 13 11 11 14 11 3 5 10 10 10 10 6 -3 -15 8 20 24 21 18 18 18 14 11 11
15 14 11 7 7 10 10 13 10 18 -4 26 15 19 4 13 9 12 5 0 17 1 3 10 10 14 4 32 12 8 11 12 11 10 6 -0 4 8 7 2 -5 -1 27 23 19 21 19 17 18 14 12 15 14 14
10 8 10 11 12 7 12 21 24 29 7 25 11 19 23 1 5 10 17 20 9 9 9 12 12 25 17 9 13 9 13 12 8 -1 -5 -3 -2 -2 10 17 19 19 19 19 18 18 17 17 17 21 16 11 11 12
11 11 7 6 7 8 23 25 19 21 24 5 -6 -1 2 6 16 18 18 11 13 11 11 14 15 17 14 11 13 7 11 8 -12 -10 -5 4 13 15 17 19 18 18 18 18 18 17 17 18 18 16 19 15 10 9
24 18 18 43 19 34 25 20 4 28 13 2 14 14 10 13 10 19 16 15 11 12 6 17 14 12 11 15 11 14 -5 -12 -0 9 14 15 16 18 19 19 19 18 18 17 17 16 17 18 18 18 16 18 12 9
21 18 9 -9 24 21 19 14 21 18 18 -3 -7 6 15 22 27 18 13 10 11 7 14 13 18 6 11 7 -4 1 12 15 16 16 15 15 16 17 17 18 18 18 18 18 17 16 16 15 17 17 17 17 16 11
14 20 22 -2 5 19 8 32 16 19 14 5 8 14 27 21 14 13 10 7 7 13 12 13 14 6 11 12 14 14 14 15 15 15 15 15 17 16 17 17 18 17 17 17 16 15 16 16 15 16 16 17 17 16
11 15 16 22 5 16 21 18 31 5 20 12 17 31 21 14 11 9 6 9 9 11 10 10 11 12 13 12 13 14 14 14 15 14 13 16 16 17 16 16 16 16 16 16 15 15 17 16 15 15 14 14 18 17
36 21 27 22 2 32 -10 13 24 19 28 22 26 17 8 11 5 7 6 8 9 9 10 9 10 10 11 11 12 12 12 13 13 14 14 16 15 16 15 16 17 17 17 17 16 14 15 16 15 16 13 14 15 18
17 10 9 20 30 23 7 -4 15 21 23 30 25 9 9 7 8 6 6 9 6 8 9 10 9 10 10 10 11 11 11 13 13 13 14 15 16 17 15 15 15 15 16 17 18 17 15 14 14 15 16 14 13 14
3 12 23 33 21 6 39 17 23 11 29 28 9 8 8 3 8 1 6 10 8 8 9 9 10 10 10 10 11 11 12 12 13 13 13 14 15 16 16 15 15 14 15 15 15 17 18 17 16 15 16 14 15 14
25 28 22 28 1 18 26 8 17 5 48 5 3 22 2 10 9 8 11 8 7 8 9 9 10 10 10 10 11 11 11 12 12 12 13 12 13 14 15 16 17 16 15 14 14 15 15 15 17 17 18 20 19 16
16 8 10 10 28 21 18 17 11 16 26 10 -1 21 10 5 9 9 9 7 8 8 8 9 10 10 11 11 11 11 11 11 12 12 13 13 12 12 14 15 16 16 16 16 15 15 14 15 15 16 18 19 18 19
12 13 6 29 15 13 18 10 15 43 14 -15 24 19 5 2 2 17 10 8 8 8 9 9 10 11 11 11 11 11 10 10 11 11 11 13 13 14 13 13 14 12 15 15 16 15 16 16 15 14 15 17 17 18
12 12 21 16 14 25 21 27 52 -1 -19 21 26 3 -13 13 12 19 9 7 8 9 9 10 10 10 10 11 11 10 10 10 10 10 10 10 11 12 13 14 12 11 12 12 13 14 15 16 17 17 17 18 17 17
13 24 26 24 19 39 45 12 -17 -8 24 23 -10 8 5 15 32 7 8 8 8 10 10 10 10 10 10 10 10 10 10 10 10 9 10 10 9 10 11 11 13 14 15 14 13 13 12 13 13 14 15 17 18 18
36 36 24 37 37 2 0 -5 14 28 31 -3 9 15 20 11 8 8 8 9 10 10 10 11 10 10 10 10 10 10 10 10 11 10 10 10 9 9 9 10 11 12 12 13 14 14 14 14 13 12 12 13 13 14
25 29 17 2 8 2 17 30 15 7 12 15 13 9 9 8 7 9 10 10 11 11 11 11 11 11 10 11 10 11 10 11 10 11 11 10 10 10 9 9 9 9 9 11 12 13 13 14 14 15 14 13 13 13
5 3 14 13 23 17 7 9 9 7 7 8 7 7 7 8 9 9 11 11 11 11 12 11 11 11 11 11 11 11 11 10 10 11 11 10 10 10 10 10 10 9 9 9 9 9 9 11 13 15 14 14 15 15
15 16 15 15 6 8 6 5 6 7 6 6 5 9 8 9 11 13 12 13 12 12 11 11 11 11 11 11 11 11 11 11 11 12 11 11 11 11 11 11 11 11 10 10 10 9 9 9 9 9 9 11 15 16
17 12 7 6 5 6 6 5 5 5 7 7 8 10 9 12 14 12 13 14 13 13 12 13 13 12 11 11 11 12 12 13 13 13 13 12 12 11 12 11 12 11 11 11 11 11 10 10 10 10 9 9 9 9
Height
3069 3067 3064 3061 3059 3055 3051 3047 3043 3040 3035 3031 3026 3021 3016 3013 3010 3005 3000 2996 2992 2982 2977 2974 2969 2966 2959 2956 2953 2950 2947 2941 2940 2939 2937 2934 2929 2928 2924 2921 2918 2918 2916 2913 2909 2908 2902 2900 2901 2903 2901 2896 2895 2894
3058 3056 3053 3051 3049 3045 3042 3038 3033 3029 3025 3021 3015 3010 3006 3002 2999 2995 2990 2987 2982 2974 2967 2964 2959 2956 2952 2948 2944 2941 2942 2937 2935 2933 2931 2927 2924 2922 2917 2916 2911 2910 2909 2908 2908 2902 2898 2896 2895 2895 2894 2892 2891 2888
3045 3043 3040 3038 3036 3033 3029 3025 3021 3017 3013 3008 3004 2999 2994 2991 2988 2984 2979 2976 2970 2964 2958 2951 2948 2945 2941 2937 2934 2933 2930 2929 2927 2925 2924 2921 2917 2913 2911 2909 2905 2902 2902 2899 2898 2894 2892 2890 2889 2889 2887 2886 2885 2883
3030 3028 3026 3024 3021 3019 3015 3012 3008 3004 3000 2995 2990 2985 2982 2978 2975 2972 2969 2967 2961 2955 2948 2941 2938 2935 2931 2926 2923 2921 2921 2921 2921 2919 2918 2914 2913 2904 2901 2900 2900 2896 2894 2891 2889 2888 2887 2885 2883 2882 2882 2880 2879 2878
3013 3012 3010 3007 3005 3002 2999 2996 2993 2989 2985 2981 2976 2972 2969 2965 2963 2961 2958 2955 2952 2950 2939 2932 2929 2925 2920 2916 2915 2914 2912 2912 2912 2911 2909 2906 2900 2900 2892 2890 2884 2885 2884 2884 2882 2881 2882 2880 2877 2876 2876 2875 2874 2873
2998 2995 2993 2991 2988 2986 2983 2979 2976 2972 2969 2965 2961 2958 2955 2953 2951 2950 2944 2944 2940 2935 2929 2924 2918 2913 2910 2907 2906 2906 2906 2904 2902 2900 2897 2893 2893 2893 2886 2880 2878 2878 2878 2878 2876 2875 2875 2874 2873 2871 2870 2869 2868 2867
2983 2981 2978 2976 2973 2971 2967 2964 2961 2957 2954 2950 2946 2944 2942 2939 2940 2939 2934 2931 2927 2925 2921 2916 2908 2902 2901 2900 2899 2900 2899 2898 2895 2892 2886 2883 2882 2883 2877 2874 2871 2872 2871 2871 2870 2869 2869 2868 2867 2866 2865 2864 2863 2862
2973 2970 2967 2964 2961 2957 2954 2950 2947 2944 2941 2937 2933 2933 2930 2928 2928 2927 2924 2920 2917 2915 2912 2908 2899 2896 2894 2893 2894 2893 2892 2889 2884 2880 2877 2875 2875 2873 2870 2867 2866 2866 2866 2866 2865 2864 2863 2863 2862 2861 2860 2859 2858 2856
2961 2959 2956 2953 2950 2947 2943 2938 2934 2931 2929 2924 2920 2919 2920 2918 2916 2916 2913 2910 2907 2909 2901 2896 2891 2890 2885 2886 2888 2888 2885 2879 2874 2871 2871 2871 2868 2866 2862 2862 2862 2862 2861 2861 2860 2859 2858 2857 2856 2856 2854 2853 2853 2852
2949 2947 2945 2942 2940 2936 2932 2927 2923 2921 2917 2911 2911 2911 2908 2907 2906 2907 2901 2898 2895 2892 2886 2883 2883 2884 2885 2883 2882 2884 2876 2873 2867 2866 2864 2862 2858 2859 2858 2858 2857 2857 2857 2856 2855 2855 2854 2852 2851 2850 2849 2848 2848 2847
2935 2935 2933 2930 2928 2925 2920 2915 2912 2909 2905 2903 2902 2901 2899 2898 2897 2896 2894 2891 2886 2880 2876 2874 2876 2878 2879 2879 2877 2877 2870 2867 2864 2862 2861 2857 2852 2853 2853 2854 2854 2853 2852 2852 2851 2850 2849 2848 2847 2845 2844 2842 2842 2842
2920 2920 2920 2918 2916 2913 2909 2903 2899 2897 2896 2896 2896 2893 2892 2890 2888 2888 2881 2879 2875 2874 2869 2869 2872 2874 2873 2872 2870 2868 2867 2865 2862 2859 2858 2853 2850 2850 2850 2849 2849 2848 2847 2846 2844 2843 2841 2840 2839 2839 2838 2837 2836 2836
2904 2906 2906 2905 2903 2900 2897 2895 2889 2887 2889 2887 2887 2886 2886 2882 2877 2873 2870 2866 2866 2864 2865 2868 2870 2870 2867 2868 2866 2865 2862 2861 2859 2856 2853 2849 2848 2847 2846 2845 2843 2841 2840 2838 2835 2833 2831 2829 2828 2828 2829 2829 2829 2830
2885 2888 2890 2891 2889 2887 2885 2882 2879 2880 2881 2878 2877 2876 2876 2869 2864 2861 2861 2861 2862 2863 2865 2865 2865 2866 2864 2863 2862 2860 2860 2858 2855 2852 2847 2846 2845 2844 2842 2840 2838 2834 2829 2826 2824 2822 2820 2819 2819 2819 2821 2822 2822 2823
2863 2867 2871 2874 2875 2873 2872 2870 2870 2870 2870 2869 2868 2864 2858 2858 2858 2857 2858 2860 2861 2861 2862 2860 2860 2862 2860 2860 2859 2858 2857 2854 2850 2846 2845 2843 2841 2838 2835 2831 2827 2823 2820 2817 2815 2813 2812 2811 2812 2812 2813 2815 2816 2817
2848 2848 2850 2855 2858 2859 2859 2859 2859 2860 2858 2858 2855 2852 2851 2853 2854 2855 2856 2858 2859 2859 2858 2859 2859 2858 2858 2858 2858 2855 2854 2849 2846 2844 2841 2838 2834 2830 2826 2822 2818 2815 2812 2810 2807 2806 2805 2805 2805 2805 2806 2808 2810 2812
2839 2839 2840 2843 2842 2844 2846 2848 2848 2847 2849 2847 2843 2845 2846 2848 2850 2852 2854 2855 2855 2856 2857 2857 2857 2856 2857 2856 2854 2852 2850 2847 2844 2840 2835 2831 2827 2823 2818 2815 2812 2808 2806 2803 2802 2800 2799 2799 2799 2800 2801 2802 2804 2806
2829 2831 2834 2836 2836 2837 2838 2838 2839 2838 2836 2836 2839 2840 2841 2844 2845 2849 2851 2851 2852 2854 2855 2855 2856 2855 2856 2854 2851 2850 2846 2843 2839 2834 2829 2824 2820 2816 2812 2809 2806 2803 2801 2798 2797 2795 2794 2794 2795 2795 2796 2797 2798 2800
2821 2822 2824 2829 2832 2833 2833 2832 2833 2831 2830 2831 2832 2835 2838 2841 2843 2847 2849 2850 2852 2853 2853 2852 2853 2854 2853 2851 2848 2845 2842 2838 2834 2829 2824 2820 2815 2811 2808 2805 2801 2799 2796 2795 2793 2792 2791 2791 2791 2791 2791 2792 2793 2795
2813 2815 2818 2823 2825 2826 2827 2827 2827 2827 2826 2827 2828 2831 2836 2840 2843 2845 2847 2850 2851 2851 2852 2851 2852 2851 2850 2847 2844 2841 2838 2834 2830 2825 2821 2816 2812 2808 2805 2801 2798 2795 2793 2792 2790 2789 2788 2788 2787 2787 2787 2788 2789 2790
2806 2807 2812 2816 2818 2821 2823 2821 2822 2823 2824 2825 2827 2832 2836 2839 2842 2845 2849 2850 2850 2850 2850 2850 2849 2848 2847 2844 2841 2838 2834 2831 2827 2823 2819 2814 2810 2806 2803 2800 2797 2794 2791 2789 2788 2787 2785 2784 2784 2784 2784 2784 2785 2785
2805 2806 2808 2811 2814 2817 2819 2821 2823 2823 2824 2824 2829 2832 2836 2840 2843 2846 2849 2849 2849 2849 2849 2848 2848 2847 2845 2842 2840 2836 2833 2830 2826 2822 2817 2813 2809 2806 2802 2799 2796 2793 2790 2788 2786 2784 2783 2781 2781 2781 2781 2781 2781 2781
2805 2805 2806 2810 2815 2817 2818 2819 2821 2821 2823 2826 2830 2835 2839 2842 2844 2847 2848 2848 2849 2849 2849 2848 2847 2846 2844 2841 2839 2836 2832 2829 2825 2821 2817 2813 2809 2805 2801 2798 2795 2792 2790 2787 2785 2783 2781 2779 2778 2777 2777 2777 2777 2777
2804 2805 2807 2810 2812 2813 2814 2815 2818 2821 2823 2828 2832 2836 2840 2843 2845 2847 2847 2848 2849 2849 2849 2848 2847 2845 2843 2841 2838 2835 2832 2828 2825 2821 2817 2813 2809 2805 2801 2798 2795 2792 2789 2786 2784 2782 2780 2778 2776 2775 2773 2773 2772 2772
2806 2807 2808 2808 2810 2812 2813 2815 2818 2821 2825 2829 2834 2837 2840 2843 2845 2847 2848 2849 2849 2849 2849 2848 2847 2845 2843 2841 2838 2835 2832 2829 2825 2822 2818 2814 2811 2807 2803 2799 2796 2792 2789 2786 2783 2780 2778 2776 2774 2773 2771 2770 2769 2768
2806 2807 2808 2807 2809 2811 2812 2816 2819 2822 2827 2832 2835 2839 2842 2844 2846 2848 2849 2849 2850 2849 2849 2848 2847 2845 2843 2840 2838 2835 2832 2829 2826 2822 2819 2815 2811 2808 2805 2801 2797 2794 2790 2787 2783 2780 2778 2776 2773 2771 2769 2768 2766 2766
2807 2807 2808 2808 2809 2812 2814 2817 2821 2827 2831 2834 2837 2841 2844 2845 2847 2849 2849 2850 2850 2850 2849 2848 2846 2845 2843 2840 2838 2836 2833 2830 2827 2824 2820 2816 2812 2809 2805 2802 2798 2795 2792 2788 2785 2782 2779 2776 2774 2771 2769 2767 2766 2765
2809 2809 2809 2812 2813 2815 2818 2823 2828 2832 2834 2837 2842 2843 2844 2846 2848 2850 2850 2851 2850 2850 2849 2848 2846 2844 2843 2840 2838 2836 2833 2830 2827 2824 2821 2818 2814 2810 2807 2803 2800 2796 2793 2790 2787 2784 2781 2778 2776 2773 2770 2768 2766 2765
2810 2811 2814 2815 2820 2824 2828 2831 2832 2835 2839 2842 2844 2845 2847 2849 2851 2851 2852 2852 2851 2850 2849 2848 2846 2844 2842 2840 2838 2835 2833 2830 2827 2824 2821 2818 2815 2812 2808 2805 2801 2798 2794 2791 2788 2785 2782 2779 2777 2774 2772 2769 2767 2766
2817 2819 2822 2826 2829 2831 2834 2837 2840 2843 2845 2848 2850 2851 2852 2853 2854 2853 2853 2853 2852 2850 2849 2847 2845 2843 2842 2839 2837 2835 2832 2829 2827 2824 2821 2818 2815 2812 2809 2806 2803 2799 2796 2793 2789 2786 2783 2780 2777 2774 2772 2770 2768 2766
2827 2829 2832 2834 2836 2839 2842 2845 2847 2850 2852 2854 2855 2856 2856 2856 2856 2855 2854 2853 2852 2850 2848 2847 2845 2843 2841 2839 2836 2834 2831 2828 2825 2822 2820 2817 2814 2811 2808 2805 2802 2799 2796 2793 2790 2787 2784 2781 2778 2775 2772 2770 2768 2766
2836 2839 2841 2842 2845 2848 2850 2853 2856 2857 2859 2859 2860 2860 2859 2859 2858 2856 2855 2853 2852 2850 2848 2846 2844 2842 2840 2838 2835 2832 2829 2826 2823 2821 2818 2815 2812 2809 2807 2803 2800 2797 2795 2792 2789 2786 2783 2780 2778 2775 2773 2770 2768 2766
2846 2848 2850 2852 2854 2857 2859 2861 2862 2863 2863 2863 2863 2862 2861 2861 2859 2858 2856 2854 2852 2850 2848 2846 2844 2841 2839 2836 2833 2830 2827 2824 2822 2819 2816 2813 2810 2807 2804 2801 2798 2795 2792 2789 2787 2784 2781 2779 2776 2774 2771 2769 2767 2765